Location: Ivychurch
(51.0000°N, 0.8833°E)
Time: 12:37:05
(UTC+00:00)

Daily predictions for brighter satellites

Satellite Brightness Start Highest point End
(mag) Time Altitude Azimuth Time Altitude Azimuth Time Altitude Azimuth
NOSS 3-1 (C) 4.4 18:33:50 10° WSW 18:39:04 46° NNW 18:45:25 10° NE
Cosmos 1437 Rocket 3.4 18:35:31 10° SSE 18:39:14 35° E 18:42:56 10° NNE
Cosmos 2251 Rocket 3.9 18:34:56 10° NNW 18:40:12 71° WSW 18:45:24 10° SSE
Sich 1 3.9 18:36:09 10° SSW 18:40:23 56° WNW 18:44:42 10° N
Cosmos 676 Rocket 4.5 18:37:07 10° NNW 18:42:04 42° ENE 18:47:02 10° SE
SL-16 R/B 4.3 18:40:53 10° N 18:43:34 13° NNE 18:46:14 10° NE
SKYMED 2 4.4 18:39:19 10° N 18:43:36 56° WNW 18:47:50 10° SSW
USA 308 2.9 18:40:22 10° WNW 18:44:07 63° SSW 18:47:50 10° SE
BREEZE-M DEB (TANK) 3.9 18:41:20 10° SW 18:44:37 56° SSE 18:54:43 10° ENE
Cosmos 1703 Rocket 4.3 18:41:15 10° N 18:45:21 34° ENE 18:49:23 10° SE
Cosmos 1605 Rocket 4.4 18:39:24 10° NNW 18:45:49 77° W 18:52:11 10° S
Resurs 1-3 4.4 18:43:35 10° SE 18:47:29 33° ENE 18:51:25 10° N
Okean-O 3.7 18:45:09 10° ESE 18:48:51 27° ENE 18:52:34 10° N
Cosmos 2173 Rocket 4.3 18:43:34 10° N 18:49:46 50° ENE 18:55:56 10° SSE
Cosmos 1743 3.2 18:46:09 10° SSW 18:49:56 65° WNW 18:53:45 10° N
BREEZE M DEB (TANK) 2.9 18:47:52 10° SW 18:50:47 33° SSE 18:52:43 11° E
Cosmos 1190 Rocket 4.0 18:46:15 10° NNW 18:51:28 73° ENE 18:56:40 10° SSE
MOS 1-B 4.5 18:48:31 10° SSE 18:54:20 86° WSW 19:00:10 10° NNW
Cosmos 2100 Rocket 4.2 18:49:03 10° N 18:55:20 57° ENE 19:01:34 10° SSE
EXPRESS MD2 3.5 18:55:01 10° W 18:57:04 27° SSW 18:59:00 10° SE
USA 215 3.5 18:52:40 10° ENE 18:59:11 71° NNW 19:05:42 10° WSW
Cosmos 1470 Rocket 3.7 18:54:53 10° S 18:59:15 57° E 19:03:39 10° NNE
Meteor 1-11 Rocket 4.0 18:54:43 10° SSW 19:00:40 83° WNW 19:06:32 10° NNE
Okean O Rocket 1.6 18:57:54 10° SSE 19:02:19 81° ENE 19:06:45 10° NNW
Cosmos 1954 Rocket 4.0 19:00:51 10° NNW 19:06:04 69° ENE 19:11:18 10° SSE
Cosmos 1726 3.8 19:08:38 14° E 19:08:38 14° E 19:10:27 10° NE
Meteor 1-21 4.3 19:04:34 10° N 19:10:07 58° ENE 19:15:40 10° SSE
NOSS 0 Rocket 4.4 19:04:40 10° NNW 19:10:37 44° NE 19:15:43 14° ESE
IGS 5A 3.5 19:07:32 10° SSE 19:11:39 87° WSW 19:15:49 10° NNW
Landsat 7 3.8 19:07:21 10° SSE 19:11:59 61° ENE 19:16:39 10° N
USA 229 DEB 4.0 19:08:15 10° SW 19:14:34 69° NW 19:21:33 10° NE
USA 229 4.0 19:08:20 10° SW 19:14:40 70° NW 19:21:39 10° NE
Exosat Rocket 3.9 19:10:22 10° S 19:15:17 49° ESE 19:21:26 10° NE
Cosmos 2084 Rocket 4.1 19:13:55 10° NW 19:17:32 45° SW 19:21:14 10° SSE
SL-8 R/B 4.4 19:13:07 10° W 19:17:42 45° SSW 19:21:31 14° SE
ISS -3.6 19:14:38 10° SW 19:17:56 54° SSE 19:20:08 19° E
YAOGAN 1 4.1 19:14:07 10° SSW 19:18:08 38° W 19:22:12 10° NNW
USA 306 4.1 19:15:19 10° WNW 19:18:41 31° SW 19:22:03 10° SSE
SL-27 R/B 3.0 19:15:52 10° S 19:18:51 31° ESE 19:21:49 10° NE
Cosmos 2322 Rocket 4.0 19:14:58 10° NW 19:20:00 33° WSW 19:25:00 10° SSW
Cosmos 2237 Rocket 3.1 19:17:08 10° NNW 19:22:15 33° NE 19:25:46 18° E
Cosmos 1727 Rocket 4.1 19:16:11 10° S 19:22:31 89° W 19:28:51 10° N
Cosmos 1842 4.2 19:18:59 10° NNW 19:22:42 50° W 19:26:23 10° S
CSL-04 Rocket 3.7 19:18:48 10° SSE 19:24:20 71° ENE 19:29:52 10° NNW
Cosmos 1975 3.1 19:20:47 10° SSE 19:24:32 44° E 19:28:20 10° NNE
Ariane Rocket 4.4 19:22:38 16° E 19:24:50 21° ENE 19:28:32 10° N
In-Cosmos 22 4.3 19:20:27 10° NNW 19:26:05 84° W 19:31:48 10° S
Cosmos 1626 2.2 19:23:41 10° NNW 19:27:17 75° W 19:30:49 10° S
KORONAS-FOTON 3.7 19:23:28 10° N 19:27:17 88° W 19:31:06 10° S
Cosmos 1818 3.6 19:22:11 10° NW 19:27:41 88° SW 19:32:28 14° SE
Cosmos 2061 Rocket 4.3 19:22:13 10° N 19:28:31 51° ENE 19:34:44 10° SSE
SJ-6B 2.9 19:25:56 10° S 19:29:53 77° WSW 19:33:47 10° NNW
USA 186 1.7 19:26:58 10° SSE 19:30:03 83° W 19:33:11 10° NNW
Cosmos 2322 3.7 19:28:01 10° NNW 19:33:44 85° WSW 19:39:23 10° SSE
CZ-4B R/B 4.4 19:29:49 10° S 19:35:14 45° W 19:40:40 10° NNW
Cosmos 1371 Rocket 3.9 19:32:09 10° SSW 19:37:26 80° ESE 19:42:41 10° NNE
Cosmos 1864 Rocket 4.4 19:31:29 10° N 19:37:42 68° ENE 19:43:49 10° SSE
Cosmos 2333 Rocket 3.3 19:33:40 10° NW 19:39:09 46° WSW 19:44:37 10° S
CZ-4C R/B 3.9 19:34:05 10° NW 19:39:36 31° NNE 19:45:25 13° ENE
Cosmos 2233 Rocket 4.2 19:33:43 10° N 19:39:39 47° ENE 19:44:06 18° SE
GEOS 3 Rocket 4.2 19:37:07 10° NE 19:42:27 62° NW 19:47:45 10° WSW
Cosmos 1980 4.2 19:37:36 10° NNW 19:43:05 45° NE 19:46:05 25° ESE
Cosmos 1805 3.7 19:43:25 28° SE 19:44:41 36° E 19:48:13 10° NNE
Cosmos 1707 3.7 19:41:14 10° NNW 19:44:54 47° W 19:48:33 10° S
CZ-4 R/B 3.2 19:41:44 10° SSW 19:45:08 30° W 19:48:35 10° NNW
SL-14 R/B 3.5 19:42:07 10° N 19:45:51 45° ENE 19:47:10 32° SE
Cosmos 2056 Rocket 3.4 19:41:05 10° SSW 19:46:13 88° ESE 19:51:22 10° NNE
NOSS 3-2 (A) 4.0 19:39:24 10° NW 19:46:42 88° NE 19:53:10 19° SE
Cosmos 2219 Rocket 2.9 19:44:09 10° NW 19:49:41 55° WSW 19:55:12 10° S
USA 307 4.4 19:47:15 10° W 19:50:25 25° SW 19:52:43 15° S
USA 305 4.4 19:47:15 10° W 19:50:26 26° SW 19:52:42 15° S
COSMOS 2428 2.8 19:44:49 10° NNW 19:50:35 83° WSW 19:55:09 17° SSE
Cosmos 1933 Rocket 3.6 19:46:28 10° SSW 19:50:47 78° W 19:55:09 10° N
MetOp-A 4.5 19:48:17 25° ESE 19:50:54 44° ENE 19:55:51 10° N
BREEZE-M DEB (TANK) 2.9 19:44:51 10° W 19:51:38 75° S 19:52:45 38° ESE
ATLAS 3B R/B 4.3 19:46:22 10° WNW 19:52:40 31° N 19:59:16 10° NE
PKM 4.1 19:48:34 10° WNW 19:52:49 58° NNE 19:54:07 33° E
Cosmos 1459 Rocket 4.3 19:48:17 10° NNW 19:54:16 66° W 20:00:16 10° S
SPOT 1/Viking Rocket 3.5 19:50:10 15° SSE 19:54:26 77° ENE 19:59:39 10° NNW
NOSS 3-2 (C) 4.1 19:47:54 10° NW 19:55:03 68° NE 20:00:12 25° ESE
Cosmos 1725 Rocket 3.9 19:50:55 10° N 19:57:09 86° E 20:03:20 10° S
Timation 1 Rocket 4.2 19:51:23 10° SSW 19:57:22 75° ESE 20:03:23 10° NE
Resurs 01 Rocket 1.5 19:54:50 25° SSE 19:57:23 70° ENE 20:01:49 10° N
Okean 1-7 4.2 19:53:35 10° NNW 19:57:46 44° W 20:01:53 10° SSW
Geosat 4.2 19:54:17 16° SSE 19:58:17 70° WSW 20:03:20 10° NW
Cosmos 1869 Rocket 3.4 19:55:36 10° S 19:59:52 70° E 20:04:12 10° NNE
Cosmos 1624 Rocket 4.2 19:54:51 10° SSW 20:00:09 75° WNW 20:05:31 10° NNE
Cosmos 1850 Rocket 4.0 19:55:27 10° NNW 20:00:47 70° ENE 20:03:29 30° SE
Okean 2 3.2 19:56:56 10° N 20:01:00 78° ENE 20:02:56 30° SSE
USA 281 4.5 19:58:40 10° NNE 20:04:45 42° NW 20:10:49 10° WSW
CENTAUR R/B 3.3 19:58:07 10° NW 20:06:13 76° SW 20:12:44 21° SSE
Cosmos 2297 Rocket 3.5 20:08:56 21° ENE 20:08:56 21° ENE 20:11:21 10° NE
Cosmos 1802 Rocket 4.4 20:01:32 10° NNW 20:07:42 66° W 20:13:55 10° S
USA 238 DEB 4.0 20:01:09 10° NW 20:08:18 66° NE 20:12:16 31° ESE
USA 238 4.0 20:01:15 10° NW 20:08:24 66° NE 20:12:21 31° ESE
H-2A R/B 3.2 20:08:14 36° E 20:08:40 37° ENE 20:12:46 10° N
Cosmos 1420 Rocket 4.3 20:03:49 10° SW 20:09:01 68° WNW 20:14:15 10° NNE
Cosmos 1674 4.5 20:06:03 10° NNW 20:09:22 31° W 20:12:40 10° SSW
Cosmos 1110 Rocket 4.3 20:12:50 39° ESE 20:12:53 39° ESE 20:17:41 10° NE
IRS-1C Rocket 4.3 20:08:48 14° S 20:13:17 73° WSW 20:18:36 10° NNW
Iridium 4 Rocket 3.3 20:09:58 10° N 20:14:14 67° W 20:17:31 16° S
Cosmos 1900 4.2 20:11:46 10° SSW 20:16:42 74° SE 20:21:37 10° NE
Cosmos 2098 Rocket 3.9 20:13:57 10° SSW 20:19:05 75° WNW 20:25:26 10° N
BREEZE-M DEB (TANK) 3.2 20:12:19 10° W 20:20:11 88° SSW 20:21:44 43° ESE
Cosmos 2227 Rocket 4.4 20:26:18 10° NE 20:26:18 10° NE 20:26:22 10° NE
Cosmos 1452 Rocket 3.4 20:18:52 10° S 20:24:04 63° ESE 20:29:18 10° NNE
Okean-O 3.7 20:21:13 12° S 20:25:08 43° W 20:29:22 10° NNW
SL-16 R/B 3.0 20:24:14 10° NNW 20:29:30 36° NE 20:30:33 33° ENE
Landsat 5 3.4 20:27:56 10° N 20:31:46 71° WNW 20:33:43 28° SSW
Cosmos 2123 Rocket 4.4 20:25:55 10° SSW 20:32:09 66° WNW 20:38:29 10° N
Cosmos 1331 Rocket 4.2 20:33:34 47° ENE 20:33:34 47° ENE 20:37:49 10° NNE
Cosmos 1464 Rocket 4.4 20:28:11 10° N 20:34:13 44° ENE 20:35:08 41° E
Cosmos 1733 4.1 20:32:30 11° SSW 20:35:57 48° WNW 20:39:38 10° N
Cosmos 2221 Rocket 3.6 20:32:24 10° N 20:36:40 64° ENE 20:36:40 64° ENE
Cosmos 1741 Rocket 4.2 20:32:24 10° NNW 20:37:36 66° WSW 20:39:26 39° S
Cosmos 1674 Rocket 3.8 20:36:51 10° N 20:40:34 53° NE 20:40:34 53° NE
USA 215 3.8 20:37:36 22° ENE 20:41:50 53° N 20:48:09 10° WNW
Cosmos 1726 2.8 20:42:28 46° W 20:42:49 48° WNW 20:46:16 10° N
Cosmos 1733 Rocket 3.5 20:46:06 51° NNE 20:46:06 51° NNE 20:49:25 10° NNE
Cosmos 1891 Rocket 4.4 20:39:55 10° N 20:45:59 63° ENE 20:47:03 55° ESE
Cosmos 1447 Rocket 4.3 20:43:25 32° S 20:46:31 78° E 20:52:43 10° NNE
CARTOSAT-1 4.0 20:49:36 50° SW 20:50:16 57° W 20:54:31 10° NNW
Spot 2 4.3 20:52:03 72° E 20:52:10 73° ENE 20:57:06 10° NNW
Cosmos 1378 Rocket 3.7 20:49:57 10° N 20:53:48 66° N 20:53:48 66° N
Meteor 2-13 Rocket 4.3 20:52:11 42° S 20:54:23 80° E 21:00:36 10° NNE
ISS -1.8 20:51:20 10° W 20:53:05 28° W 20:53:05 28° W
Terra 2.4 20:56:52 46° NE 20:56:52 46° NE 21:00:42 10° N
Cosmos 968 Rocket 3.3 20:51:48 10° NNW 20:57:02 85° ENE 20:57:12 83° ESE
SPOT 5 2.8 20:57:30 71° NNE 20:57:30 71° NNE 21:01:53 10° NNW
ADEOS Rocket 3.1 20:58:18 56° ESE 20:59:14 62° ENE 21:06:03 10° N
Ariane Rocket 3.0 21:02:48 68° SSW 21:03:17 74° WSW 21:08:23 10° NNW
SPOT 3 Rocket 3.4 21:05:38 87° SE 21:05:43 88° ENE 21:10:59 10° NNW
ERS-1 Rocket 3.0 21:06:30 70° NNE 21:06:30 70° NNE 21:11:08 10° NNW
ARIANE 5 R/B 4.5 21:08:09 21° NNE 21:08:09 21° NNE 21:10:05 10° N
Cosmos 2237 Rocket 2.5 21:01:06 10° NW 21:06:38 57° WSW 21:07:37 50° SSW
Spot 2 Rocket 3.5 21:14:44 75° N 21:14:44 75° N 21:19:27 10° NNW
Meteor 1-24 Rocket 3.7 21:09:00 10° N 21:14:52 76° ENE 21:14:52 76° ENE
Cosmos 1513 Rocket 4.3 21:10:16 10° N 21:16:23 87° WSW 21:16:56 75° S
ATLAS CENTAUR R/B 3.9 21:02:30 10° SW 21:17:36 85° SSE 21:22:22 26° ENE
Cosmos 2346 Rocket 4.3 21:18:02 80° ESE 21:18:06 80° E 21:24:20 10° NNE
FALCON 9 R/B 4.4 21:13:38 10° WSW 21:25:11 25° SSW 21:25:41 25° SSW
CZ-4C R/B 3.1 21:22:41 10° NW 21:29:24 61° NE 21:30:34 55° ENE
Meteor 2-5 Rocket 3.8 21:24:11 10° NNW 21:29:52 79° W 21:29:52 79° W
Cosmos 2034 Rocket 4.0 21:26:59 10° N 21:32:46 72° NE 21:32:46 72° NE
Resurs 01 Rocket 4.2 21:32:23 12° WSW 21:34:22 16° W 21:37:06 10° NW
SJ 16-02 3.1 21:30:42 10° NNW 21:32:57 27° N 21:32:57 27° N
Cosmos 1943 4.3 21:34:21 10° NNW 21:38:48 35° NNE 21:38:48 35° NNE
H-2A R/B 4.3 21:44:35 28° W 21:44:35 28° W 21:47:54 10° NNW
ATLAS 3B R/B 4.0 21:38:41 10° NW 21:45:28 36° NNE 21:48:14 28° ENE
Cosmos 2297 Rocket 2.6 21:50:33 59° NW 21:50:33 59° NW 21:55:56 10° NNE
Cosmos 2227 Rocket 3.4 22:08:02 34° NNE 22:08:02 34° NNE 22:11:13 10° NNE
SL-16 R/B 3.2 22:08:19 10° NW 22:12:26 42° WNW 22:12:26 42° WNW
USA 215 3.5 22:24:56 65° N 22:24:56 65° N 22:30:57 10° WNW
Terra 4.1 22:35:37 20° WNW 22:35:37 20° WNW 22:37:50 10° NW
ADEOS Rocket 4.5 22:45:15 30° W 22:45:16 30° W 22:51:08 10° NNW
Cosmos 2263 Rocket 4.2 23:04:25 20° NNE 23:04:25 20° NNE 23:06:04 10° NNE
SJ 16-02 4.4 23:09:45 10° NW 23:09:50 10° NW 23:09:50 10° NW
CZ-4C R/B 3.8 23:11:11 10° NW 23:15:44 39° WNW 23:15:44 39° WNW
ATLAS CENTAUR R/B 4.0 23:22:56 10° W 23:32:04 48° NW 23:32:04 48° NW
ATLAS 3B R/B 3.4 23:29:46 10° NW 23:35:28 55° NNW 23:35:28 55° NNW
Cosmos 2082 Rocket 4.5 23:41:35 10° N 23:45:15 17° NNE 23:46:10 17° NE
Cosmos 2227 Rocket 4.4 23:49:45 19° NW 23:50:38 20° NW 23:54:46 10° NNE
